Location: ?????????
(55.6553°N, 38.9075°E)
Time: 02:29:06
(UTC+00:00)

Cosmos 1709 Rocket - Pass Details

Date: 18 October 2019
Orbit: 948 x 1002 km, 82.9° (Epoch: 21 November)

Event Time Altitude Azimuth Distance (km) Brightness Sun altitude
Exits shadow 02:17:21 16° 232° (SW) 2,357 5.5 -15.2°
Maximum altitude 02:22:02 39° 294° (WNW) 1,450 4.5 -14.5°
Drops below altitude 10° 02:27:59 10° 3° (N) 2,782 6.5 -13.7°
Sets 02:30:44 0° 11° (N) 3,739 7.2 -13.3°
